Skip Page Navigation
NASA JPL Caltech
NASA Logo - Jet Propulsion Laboratory + View the NASA Portal
+ Center for Near-Earth Object Studies
JPL Home Earth Solar System Stars & Galaxies Technology
JPL Solar System Dynamics
BODIES ORBITS EPHEMERIDES TOOLS PHYSICAL DATA DISCOVERY FAQ SITE MAP
JPL Small-Body Database Browser
Search: [ help ]  
216787 (2006 RC66)
Classification: Main-belt Asteroid          SPK-ID: 2216787
Ephemeris | Orbit Diagram | Orbital Elements | Mission Design | Physical Parameters | Discovery Circumstances | Close-Approach Data ]

[ show orbit diagram ]
Orbital Elements at Epoch 2459200.5 (2020-Dec-17.0) TDB
Reference: JPL 17 (heliocentric ecliptic J2000)
 Element Value Uncertainty (1-sigma)   Units 
e .01820316322000549 3.9337e-08  
a 2.675174098905201 1.9423e-08 au
q 2.626477468140898 1.1205e-07 au
i 2.695019156842923 3.9958e-06 deg
node 35.30471273565383 9.4931e-05 deg
peri 159.4776983375411 0.00015449 deg
M 270.6066113777349 0.00012311 deg
tp 2459597.352757968989
(2022-Jan-17.85275797)
0.00054722 TDB
period 1598.182987251165
4.38
1.7405e-05
4.765e-08
d
yr
n .2252558079217143 2.4532e-09 deg/d
Q 2.723870729669503 1.9776e-08 au
  Orbit Determination Parameters
   # obs. used (total)      323  
   data-arc span      7634 days (20.90 yr)  
   first obs. used      2000-03-09  
   last obs. used      2021-02-01  
   planetary ephem.      DE441  
   SB-pert. ephem.      SB441-N16  
   condition code      0  
   norm. resid. RMS      .47921  
   source      ORB  
   producer      Otto Matic  
   solution date      2021-Apr-13 23:56:16  

Additional Information
 Earth MOID = 1.6221 au 
 Jupiter MOID = 2.22986 au 
 T_jup = 3.377 
[ show covariance matrix ]

Ephemeris | Orbit Diagram | Orbital Elements | Mission Design | Physical Parameters | Discovery Circumstances | Close-Approach Data ]

Physical Parameter Table
Parameter Symbol Value Units Sigma Reference Notes
absolute magnitude H 16.56   n/a MPCxxxxx  

216787 (2006 RC66)          Discovered 2006-Sep-14 by Spacewatch at Kitt Peak
Reference: 20090707/Numbers.arcLast Updated: 2009-07-09

[ show close-approach data ]
Alternate Designations
 2006 RC66 = 2000 JK86 
Ephemeris | Orbit Diagram | Orbital Elements | Mission Design | Physical Parameters | Discovery Circumstances | Close-Approach Data ]
ABOUT SSD CREDITS/AWARDS PRIVACY/COPYRIGHT GLOSSARY LINKS
FirstGov 2021-Jun-20 21:27 UT
(server date/time)  
NASA Home Page
Site Manager:   Ryan S. Park
Webmaster  Alan B. Chamberlin